Weather in Ozeriany

Ukraine / Chernihiv Region     50°41′21″N   31°27′59″E
temp.,
°C
wind,
m/s
gust,
m/s
humid.,
%
clouds,
%
prec.,
mm/h
press.,
hPa
HPBL,
m
30 june, thu
thu3000:00+17ne1193100 0.0 101730
03:00+17e239589 0.0 101756
06:00+17e24945 0.0 1017131
09:00+21e34765 0.0 1017557
12:00+25ene445843 0.0 10171447
15:00+26ne555492 0.2 10161672
18:00+25ene455866 0.0 1016892
21:00+21ene48779 0.0 1017170
1 july, fri
fri100:00+18e33807 0.0 101831
03:00+16e22730 0.0 101811
06:00+17n22750 0.0 101818
09:00+22nne34600 0.0 1019458
12:00+26ne44510 0.0 10191538
15:00+27ne55420 0.0 10181879
18:00+25ene55435 0.0 10191645
21:00+20ne33725 0.0 101934
2 july, sat
sat200:00+18e3574100 0.0 102190
03:00+15ese377423 0.0 1022145
06:00+15ese36758 0.0 1023135
09:00+20se34515 0.0 1023496
12:00+24ese223918 0.0 10231215
15:00+26ene22380 0.0 10221713
18:00+26ene223917 0.0 10211517
21:00+20ese33645 0.0 102135
3 july, sun
sun300:00+17s33595 0.0 102139
03:00+16ssw23563 0.0 102124
06:00+16sw22605 0.0 102136
09:00+23sw22435 0.0 1020363
12:00+28wsw10385 0.0 10191414
15:00+29e22325 0.0 10182012
18:00+29ene32340 0.0 10171443
21:00+23e455964 0.0 101765
4 july, mon
mon400:00+20se35626 0.0 101868
03:00+18ene117426 0.0 101711
06:00+18ese11755 0.0 101714
09:00+24ssw01565 0.0 1017391
12:00+29ene21380 0.0 10171735
15:00+31ne323131 0.0 10162853
18:00+30ene433580 0.0 10161474
21:00+25ese345799 0.0 101785